Content
SEND FEEDBACK

Daily
Averages
Monthly
Summary
United States of America

SUMMIT LAKE, WISCONSIN


Home > North America > United States > Wisconsin
Elevation: 1730 feet     Latitude: 45 23N     Longitude: 089 12W

WEATHER
 
SELECT A DAY
Number of Records: 442,498;   Date Range: 7/1/96 - 7/7/14
 
SHARE

PRINT THIS DATA

[ ← Previous Day ]
WEATHER ALMANAC - JANUARY 23, 2013
[ Next Day → ]
[ °C ]   °F
Weather ElementAverageHighLow
Temperature-0.7 °F9.9 °F (12:55 pm)-11.4 °F (2:15 am)
Dewpoint-6.9 °F4.3 °F (4:15 pm)-16.8 °F (1:15 am)
Humidity75.3 %84 % (4:15 pm)63 % (5:15 pm)
Barometer30.10 in30.36 in (11:55 pm)29.96 in (1:35 pm)
Wind Speed9.3 mph18.4 mph (4:15 pm)
Wind Gust26.5 mph (4:55 pm)
Weather ElementAverage
Visibility7.9 mi
Wind DirectionWNW (291.7 °)

Weather ElementTotal
Precipitation---
Heating Degree Days65.8 (Base 65)
Averaged from 70 records on January 23, 2013
WEATHER CONDITIONS BREAKOUT
WIND DIRECTION BREAKOUT
WEATHER BY HOUR - JANUARY 23, 2013
[ °C ]   °F
Local TimeTemperatureDewpointHumidityBarometerVisibilityWind DirectionWind SpeedGust SpeedPrecipitationEventsConditions
12:35 AM-10.7 °F-16.6 °F75 %30.13 in10.0 miWest (280°)4.6 mphClear
12:55 AM-10.7 °F-16.6 °F75 %30.13 in10.0 miWest (280°)4.6 mphClear
1:15 AM-11.2 °F-16.8 °F76 %30.13 in10.0 miWest (270°)4.6 mphClear
1:35 AM-11.2 °F-16.6 °F77 %30.13 in10.0 miWest (270°)4.6 mphClear
1:55 AM-11.2 °F-16.6 °F77 %30.13 in10.0 miWest (270°)4.6 mphClear
2:15 AM-11.4 °F-16.6 °F78 %30.13 in10.0 miWest (270°)3.5 mphScattered Clouds
2:35 AM-10.8 °F-16.1 °F78 %30.12 in10.0 miWest (260°)3.5 mphOvercast
2:55 AM-10.8 °F-15.9 °F78 %30.11 in10.0 miWSW (250°)3.5 mphOvercast
3:15 AM-9.4 °F-14.8 °F77 %30.11 in10.0 miWest (260°)5.8 mphOvercast
3:35 AM-8.5 °F-13.9 °F77 %30.10 in10.0 miWest (270°)6.9 mphOvercast
3:55 AM-8.0 °F-13.5 °F77 %30.09 in10.0 miWest (260°)5.8 mphOvercast
4:15 AM-7.8 °F-13.0 °F78 %30.09 in10.0 miWest (270°)4.6 mphOvercast
4:35 AM-7.8 °F-13.2 °F77 %30.09 in10.0 miWest (280°)5.8 mphOvercast
4:55 AM-7.8 °F-13.0 °F78 %30.08 in10.0 miWest (270°)5.8 mphOvercast
5:15 AM-7.2 °F-12.3 °F79 %30.08 in10.0 miWest (270°)5.8 mphOvercast
5:35 AM-6.9 °F-12.1 °F78 %30.07 in10.0 miWest (280°)5.8 mphOvercast
6:15 AM-7.1 °F-12.3 °F78 %30.08 in10.0 miWNW (290°)5.8 mphOvercast
6:35 AM-6.3 °F-11.2 °F79 %30.07 in10.0 miWest (280°)6.9 mphOvercast
6:55 AM-5.8 °F-11.0 °F78 %30.06 in10.0 miWest (280°)6.9 mphOvercast
7:15 AM-5.3 °F-10.5 °F78 %30.05 in10.0 miWest (280°)8.1 mphOvercast
7:35 AM-4.9 °F-10.3 °F78 %30.05 in10.0 miWest (280°)8.1 mphOvercast
7:55 AM-4.4 °F-9.6 °F78 %30.05 in10.0 miWest (260°)10.4 mphOvercast
8:15 AM-4.2 °F-9.4 °F78 %30.05 in10.0 miWest (270°)8.1 mphOvercast
8:35 AM-2.9 °F-8.5 °F77 %30.05 in10.0 miWest (270°)9.2 mphOvercast
8:55 AM-1.7 °F-8.3 °F73 %30.04 in10.0 miWest (260°)9.2 mphOvercast
9:15 AM-0.4 °F-6.9 °F74 %30.05 in7.0 miWest (270°)9.2 mphOvercast
9:35 AM0.1 °F-6.0 °F75 %30.04 in4.0 miWest (260°)9.2 mphHaze
9:55 AM1.2 °F-4.9 °F75 %30.04 in5.0 miWest (280°)8.1 mphHaze
10:15 AM2.3 °F-4.2 °F74 %30.04 in7.0 miWest (280°)8.1 mphOvercast
10:35 AM3.4 °F-3.3 °F74 %30.05 in4.0 miWNW (290°)5.8 mphHaze
10:55 AM4.1 °F-2.6 °F74 %30.03 in2.0 miWest (280°)10.4 mph16.1 mphSnowLight Snow
11:15 AM4.6 °F-2.0 °F74 %30.03 in2.5 miWest (260°)9.2 mphHaze
11:35 AM5.5 °F-1.1 °F74 %30.01 in3.0 miWest (260°)9.2 mphHaze
11:55 AM6.8 °F-0.2 °F73 %30.00 in3.0 miWest (280°)9.2 mphHaze
12:15 PM7.7 °F0.1 °F71 %29.99 in2.5 miWest (270°)6.9 mphHaze
12:35 PM8.2 °F-0.4 °F68 %29.98 in10.0 miWest (270°)10.4 mphOvercast
12:55 PM9.9 °F0.7 °F66 %29.97 in10.0 miWest (270°)10.4 mphOvercast
1:15 PM8.2 °F-0.6 °F67 %29.97 in5.0 miWest (270°)11.5 mphHaze
1:35 PM8.4 °F1.2 °F73 %29.96 in3.0 miWest (270°)9.2 mphHaze
1:55 PM8.2 °F1.4 °F74 %29.97 in2.5 miWest (260°)8.1 mphHaze
2:15 PM9.5 °F1.8 °F71 %29.97 in5.0 miWNW (290°)9.2 mphHaze
2:35 PM9.3 °F1.4 °F70 %29.97 in3.0 miWest (270°)10.4 mphHaze
2:55 PM9.0 °F3.0 °F77 %29.98 in1.5 miWNW (290°)8.1 mphSnowLight Snow
3:15 PM9.3 °F3.0 °F76 %29.99 in2.5 miNW (310°)9.2 mphHaze
3:35 PM8.6 °F3.2 °F79 %30.00 in1.8 miNW (310°)9.2 mphSnowLight Snow
3:55 PM8.6 °F3.9 °F81 %30.01 in2.0 miNW (320°)9.2 mphSnowLight Snow
4:15 PM8.2 °F4.3 °F84 %30.03 in0.8 miNW (320°)18.4 mph25.3 mphSnowLight Snow
4:35 PM7.0 °F0.7 °F75 %30.04 in4.0 miNW (320°)17.3 mph23.0 mphHaze
4:55 PM5.2 °F-4.4 °F65 %30.06 in10.0 miNNW (340°)16.1 mph26.5 mphMostly Cloudy
5:15 PM4.5 °F-5.8 °F63 %30.08 in10.0 miNNW (340°)16.1 mph25.3 mphClear
5:35 PM3.7 °F-6.0 °F64 %30.10 in10.0 miNNW (330°)13.8 mph21.9 mphClear
5:55 PM3.2 °F-5.8 °F66 %30.11 in10.0 miNW (320°)10.4 mphScattered Clouds
6:15 PM3.6 °F-6.0 °F65 %30.13 in10.0 miNNW (340°)13.8 mph24.2 mphScattered Clouds
6:35 PM2.7 °F-6.7 °F65 %30.15 in10.0 miNNW (340°)18.4 mph26.5 mphClear
6:55 PM1.8 °F-6.9 °F67 %30.17 in10.0 miNNW (330°)17.3 mph23.0 mphClear
7:15 PM1.4 °F-6.3 °F70 %30.19 in10.0 miNW (320°)11.5 mph20.7 mphMostly Cloudy
7:35 PM1.0 °F-5.8 °F73 %30.20 in10.0 miNW (320°)12.7 mphMostly Cloudy
7:55 PM0.1 °F-5.4 °F77 %30.22 in7.0 miNW (320°)12.7 mph18.4 mphMostly Cloudy
8:15 PM-0.4 °F-5.3 °F80 %30.23 in4.0 miNW (320°)13.8 mph17.3 mphHaze
8:35 PM-0.8 °F-5.8 °F79 %30.24 in10.0 miNW (310°)12.7 mph17.3 mphScattered Clouds
8:55 PM-1.3 °F-6.3 °F79 %30.25 in10.0 miNW (310°)11.5 mphClear
9:15 PM-1.8 °F-6.7 °F80 %30.27 in10.0 miNW (320°)10.4 mph17.3 mphClear
9:35 PM-2.2 °F-6.9 °F80 %30.27 in10.0 miNW (320°)12.7 mphClear
9:55 PM-2.4 °F-7.1 °F80 %30.28 in10.0 miNW (310°)11.5 mphClear
10:15 PM-2.7 °F-7.6 °F80 %30.29 in10.0 miNNW (330°)12.7 mphClear
10:35 PM-3.1 °F-7.6 °F81 %30.29 in10.0 miNNW (330°)10.4 mphClear
10:55 PM-3.5 °F-7.8 °F82 %30.32 in10.0 miNNW (330°)9.2 mphClear
11:15 PM-3.8 °F-8.0 °F82 %30.33 in10.0 miNW (320°)8.1 mphClear
11:35 PM-4.2 °F-8.5 °F82 %30.35 in10.0 miNW (320°)9.2 mphClear
11:55 PM-4.4 °F-8.5 °F82 %30.36 in10.0 miNW (320°)8.1 mphClear
Hourly data recorded from KAIG, located miles away from Summit Lake, Wisconsin







STORIES FROM OUR PARTNERS